STARLINK-37798, 69497

Orbit data source: Space-Track

STARLINK-37798, 69497 is a payload satellite owned by SpaceX/Seattle (US) in SSO that was launched on Thu, 11 Jun 2026 UTC via an FALCON 9 launch vehicle from the Air Force Western Test Range (AFWTR). Payload-class satellites include a variety of spacecraft equipped with specific instruments for various scientific and technological missions. These include communications satellites like Starlink; space stations such as the ISS; scientific satellites like the Hubble; Earth observation satellites from companies like Planet Labs, Umbra, and HawkEye 360; GPS; miniature CubeSats for education and research; and military/defense satellites.

Loading next visibility...
Identifier
69497, 2026-131V
Orbit
SSO
Country
Flag of USUS
Related business
Manufacturer
SpaceX/Seattle
Mission
Operational spacecraft
Bus & Motor
STARLINK V2MO, Unknown motor
Mass
575 kg wet, ~530 kg dry
Launch date (UTC)
2026-06-11 (1 week ago)
Launch vehicle
FALCON 9
Launch site
Air Force Western Test Range (AFWTR)
Object type
Payload
Rocket body
Debris
Shape & HBR
Unknown
Radar Cross Section
RCS unknown

Expand to show TLE details & history
Last TLE update: 10 hours ago

TLE from 10 hours ago
0 STARLINK-37798
1 69497U 26131V   26171.41668980 -.01148556  39030-3 -34507-2 0  9998
2 69497  97.2832 191.8701 0000959  89.7421 244.3646 15.92289276  2595
Epoch: 2026-06-20T10:00Z
TLE epoch observation values (Epoch: 2026-06-20T10:00:01.998Z)
Latitude
-25.94165°
Longitude
136.77457°
Altitude
306.045 km
Speed
7.723 km/s
True Right ascension
13h 01m 39s
True Declination
-25° 47' 51"
Sunlit
Object was in full shadow at epoch
Visualization orbit readout
Latitude
Unknown
Longitude
Unknown
Altitude
Unknown
Speed
Unknown
Apparent Right ascension
Unknown
Apparent Declination
Unknown
Sunlit
N/A
Visualization observer readout
Local Sidereal Time
07:16:29
Azimuth
Unknown
Elevation
Unknown
Doppler factor
Unknown
Orbital elements
Apogee altitude
293.383 km
Perigee altitude
292.103 km
Semi-major axis
6,670.88 km
Eccentricity
0.0001
Inclination
97.2832°
RAAN
191.8701°
Arg. of periapsis
89.7421°
True anomaly
244.35469°
Mean anomaly
244.3646°
Eccentric anomaly
244.35965°
Mean motion
3.98353 °/min
Orbital period
90.37 mins
BSTAR
-0.0034507
Loading maneuver chart data...
Computing Atmospheric mass density...
Loading historical data...
Loading historical data...
Loading historical data...
Loading historical data...
Loading historical data...
Loading historical data...
Loading historical data...

Documentation

Showing up to 5 results
|